Location: Katowice
(50.2611°N, 19.0242°E)
Time: 01:29:14
(UTC+02:00)

Tiros 1 - Pass Details

Date: 26 August 2019
Orbit: 631 x 664 km, 48.4° (Epoch: 17 September)

Event Time Altitude Azimuth Distance (km) Brightness Sun altitude
Exits shadow 03:08:48 63° 215° (SW) 714 7.0 -21.7°
Maximum altitude 03:09:07 65° 190° (S) 701 7.0 -21.6°
Drops below altitude 10° 03:13:46 10° 109° (ESE) 2,031 9.9 -21.2°
Sets 03:16:07 0° 107° (ESE) 2,945 10.8 -20.9°
